This is the latest recevied weather packets stored in our database for station/object KJ5JYX. If no packets are shown the sender has not sent any weather packets the latest 10 day(s).
| Time | Temp. | Humidity | Pressure | Rain* | Wind** | Luminosity | Snow |
|---|---|---|---|---|---|---|---|
| 1777397720 | 28.89° C | 76% | 1013.8 hPa | 0 mm | - | 242 W/m² | - |
| 1777397416 | 28.89° C | 78% | 1014.1 hPa | 0 mm | - | 214 W/m² | - |
| 1777397113 | 28.33° C | 77% | 1014 hPa | 0 mm | - | 217 W/m² | - |
| 1777396810 | 28.33° C | 77% | 1013.7 hPa | 0 mm | - | 148 W/m² | - |
| 1777396506 | 28.89° C | 77% | 1013.7 hPa | 0 mm | - | 190 W/m² | - |
| 1777396203 | 28.33° C | 79% | 1013.6 hPa | 0 mm | - | 214 W/m² | - |
| 1777395899 | 28.33° C | 78% | 1013.6 hPa | 0 mm | - | 161 W/m² | - |
| 1777395594 | 28.33° C | 78% | 1013.7 hPa | 0 mm | - | 209 W/m² | - |
| 1777395290 | 28.33° C | 80% | 1013.6 hPa | 0 mm | - | 180 W/m² | - |
| 1777394988 | 27.78° C | 79% | 1013.6 hPa | 0 mm | - | 199 W/m² | - |
| 1777394685 | 27.78° C | 80% | 1013.5 hPa | 0 mm | - | 167 W/m² | - |
| 1777394381 | 27.78° C | 79% | 1013.6 hPa | 0 mm | - | 166 W/m² | - |
| 1777394077 | 27.78° C | 80% | 1013.5 hPa | 0 mm | - | 213 W/m² | - |
| 1777393772 | 27.78° C | 80% | 1013.4 hPa | 0 mm | - | 219 W/m² | - |
| 1777393466 | 27.78° C | 80% | 1013.5 hPa | 0 mm | - | 212 W/m² | - |
| 1777393163 | 27.78° C | 80% | 1013.5 hPa | 0 mm | - | 285 W/m² | - |
| 1777392860 | 27.22° C | 81% | 1013.3 hPa | 0 mm | - | 269 W/m² | - |
| 1777392555 | 27.22° C | 82% | 1013.3 hPa | 0 mm | - | 233 W/m² | - |
| 1777392251 | 26.67° C | 82% | 1013.6 hPa | 0 mm | - | 148 W/m² | - |
| 1777391946 | 27.22° C | 82% | 1013.5 hPa | 0 mm | - | 181 W/m² | - |
| 1777391641 | 27.22° C | 82% | 1013.4 hPa | 0 mm | - | 183 W/m² | - |
| 1777391337 | 27.22° C | 83% | 1013.4 hPa | 0 mm | - | 143 W/m² | - |
| 1777391035 | 26.67° C | 82% | 1013.5 hPa | 0 mm | - | 174 W/m² | - |
| 1777390730 | 27.22° C | 82% | 1013.4 hPa | 0 mm | - | 175 W/m² | - |
| 1777390427 | 26.67° C | 83% | 1013.4 hPa | 0 mm | - | 174 W/m² | - |
* Rain latest hour (hover to see other rain measurements)
** Current wind speed in m/s (hover to see current wind gust speed)